Regional Weather Roundup
Issued by NWS

Home | Current Version | Previous Version | Graphics & Text | Print | Product List | Glossary On
Versions: 1 2 3 4 5 6 7 8 9 10 11 12 13 14 15 16 17 18 19 20 21 22 23 24 25 26 27 28 29 30 31 32 33 34 35 36 37 38 39 40 41 42 43 44 45 46 47 48 49 50
000
ASUS45 KBOU 312207
RWRCO

WEATHER ROUNDUP FOR COLORADO
NATIONAL WEATHER SERVICE DENVER/BOULDER CO
400 PM MDT SUN AUG 31 2014

NOTE: "FAIR" INDICATES FEW OR NO CLOUDS BELOW 12000 FEET WITH NO
SIGNIFICANT WEATHER AND/OR OBSTRUCTIONS TO VISIBILITY.

COZ001>005-013-030-031-312300-
...NORTHWEST COLORADO...

CITY           SKY/WX    TMP DP  RH WIND       PRES   REMARKS
CRAIG          PTSUNNY   71  45  39 N6        30.02F
HAYDEN         MOSUNNY   68  41  37 NW17      30.03F
MEEKER         SUNNY     75  38  26 W18G28    30.01F
MOUNT WERNER   NOT AVBL
STEAMBOAT SPGS MOSUNNY   64  46  51 W8        30.05F
WALDEN         MOSUNNY   59  36  41 W17G23    30.10F
$$

COZ006>008-011-312300-
...WEST CENTRAL VALLEYS...

CITY           SKY/WX    TMP DP  RH WIND       PRES   REMARKS
GRAND JUNCTION SUNNY     86  31  13 W21G31    29.88F
MONTROSE       PTSUNNY   82  36  19 SW10G22   29.96F
EAGLE          MOSUNNY   79  36  21 W18G28    29.98S
RIFLE          PTSUNNY   77  45  32 NW13      29.91F
DELTA          NOT AVBL
NUCLA          PTSUNNY   86  30  13 W16G26    30.00F
$$

COZ017>023-064>068-312300-
...SOUTHWEST COLORADO...

CITY           SKY/WX    TMP DP  RH WIND       PRES   REMARKS
DURANGO        MOSUNNY   83  30  14 W24G38    30.07F
CORTEZ         MOSUNNY   87  34  15 SW29G35   30.02F
PAGOSA SPRINGS PTSUNNY   78  24  13 SW18G38   30.14F
TELLURIDE      PTSUNNY   70  30  23 W9G23     30.24S
WOLF CREEK PAS PTSUNNY   52  30  43 SW21G45   30.43S
$$

COZ009-010-012-014-032>034-037-058>063-312300-
...CENTRAL COLORADO...

CITY           SKY/WX    TMP DP  RH WIND       PRES   REMARKS
ASPEN          MOSUNNY   72  33  24 W10G16    30.06F
BUENA VISTA    PTSUNNY   71  32  23 SW20G29   30.12F
COPPER MTN     PTSUNNY   55  32  41 SW25G38   30.36S
BERTHOUD PASS  CLOUDY    36  36 100 W26       30.37F
COTTONWOOD PAS PTSUNNY   61  30  31 W17G38    30.24F
GUNNISON       PTSUNNY   72  36  26 W15G26    30.13R
KREMMLING      PTSUNNY   70  34  26 W10G17    30.05R
LEADVILLE      MOSUNNY   60  30  32 VRB7      30.21F
MONARCH PASS   CLOUDY    46  32  57 W32G58    30.48R
SALIDA         PTSUNNY   71  35  26 W17G33    30.17R
SUNLIGHT       PTSUNNY   63  36  36 S3        30.26F
WILKERSON PASS NOT AVBL
$$

COZ069>075-312300-
...SAN LUIS VALLEY/SANGRE DE CRISTO MOUNTAINS...

CITY           SKY/WX    TMP DP  RH WIND       PRES   REMARKS
ALAMOSA        SUNNY     81  29  15 W23G37    30.08F
LA VETA PASS   NOT AVBL
SAGUACHE       NOT AVBL
$$

COZ035-036-038>040-312300-
...NORTHERN COLORADO FRONT RANGE...

CITY           SKY/WX    TMP DP  RH WIND       PRES   REMARKS
DENVER INTL AP PTSUNNY   67  49  52 NE17      29.91F
DMNS CITY PARK   N/A     68  48  48 NE18G24   29.91R
AURORA         PTSUNNY   74  50  42 NE13      29.93S
FRONT RANGE AP PTSUNNY   72  50  46 NE17      29.94R
ERIE MUNI ARPT PTSUNNY   67  51  57 N6        29.92R
BOULDER MUN AP PTSUNNY   68  50  52 CALM      29.93R
CENTENNIAL     PTSUNNY   77  48  35 E12       29.92S
BROOMFIELD     PTSUNNY   68  50  52 NE13      29.94R
FORT COLLINS   MOSUNNY   73  52  46 NE5       29.90F
LONGMONT       PTSUNNY   71  52  51 SW6       29.93S
$$

COZ041-046-047-076>085-087-088-312300-
...PIKES PEAK/PALMER DIVIDE AND SOUTHERN FOOTHILLS...

CITY           SKY/WX    TMP DP  RH WIND       PRES   REMARKS
COLO. SPRINGS  MOSUNNY   78  47  33 E14G22    29.94F
A. F. ACADEMY  PTSUNNY   81  34  18 W20G30    29.95F
ELLICOTT       MOSUNNY   78  48  34 E18       29.94F
FALCON         MOSUNNY   76  47  35 E9        30.00F
FORT CARSON    MOSUNNY   79  50  36 NE12      29.91F
LIMON          PTSUNNY   77  47  34 NE14      29.92F
MONUMENT HILL  PTSUNNY   77  39  25 NW9       29.99F
TRINIDAD       SUNNY     93  29  10 W25G35    29.91S
$$

COZ042>045-048>051-090-091-312300-
...NORTHEAST COLORADO...

CITY           SKY/WX    TMP DP  RH WIND       PRES   REMARKS
GREELEY ARPT   MOSUNNY   73  48  40 NW8       29.88F
AKRON          PTSUNNY   71  45  39 N10       29.90F
BURLINGTON     PTSUNNY   79  49  34 NE16G25   29.87S
WRAY             N/A     77  51  40 NE5       29.85F
STERLING       PTSUNNY   77  54  44 W7        29.83F
HOLYOKE        CLOUDY    79  48  34 N8        29.86S
FORT MORGAN    PTSUNNY   73  45  37 NW5       29.88F
$$

COZ086-089-092>099-312300-
...SOUTHEAST COLORADO...

CITY           SKY/WX    TMP DP  RH WIND       PRES   REMARKS
PUEBLO         PTSUNNY   87  48  25 NE30G41   29.80R
LA JUNTA       PTSUNNY   90  49  24 NE23G31   29.77S
LAMAR          PTSUNNY   84  54  35 NE21      29.75S
SPRINGFIELD      N/A     93  37  14 SW12      29.77F
$$


USA.gov is the U.S. government's official web portal to all federal, state and local government web resources and services.